COSMOS 2251 DEB, 34121

Orbit data source: Space-Track

COSMOS 2251 DEB, 34121 is space debris in LEO originally from a launch on Wed, 16 Jun 1993 UTC launched from the Plesetsk Missile And Space Complex (PKMTR). The debris from Iridium 33, an American commercial communications satellite, has been tracked extensively since its accidental collision with the defunct Russian satellite Cosmos 2251 in 2009. This event, occurring at high speed in low Earth orbit (LEO), generated thousands of pieces of space debris, significantly increasing the risk of further collisions. The Iridium 33 debris cloud has impacted space traffic management and orbital debris mitigation strategies, making it a subject of ongoing study in space situational awareness.

Loading next visibility...
Identifier
34121, 1993-036KS
Orbit
LEO
Country
Flag of CISCIS
Related business
Manufacturer
Unknown
Mission
Spacecraft
Bus & Motor
Unknown
Mass
Unknown
Launch date (UTC)
1993-06-16 (33 years ago)
Launch vehicle
Unknown
Launch site
Plesetsk Missile And Space Complex (PKMTR)
Object type
Payload
Rocket body
Debris
Shape & HBR
Unknown shape, 0.1 m
Radar Cross Section
Medium (>0.1 m² and <1 m²)

Expand to show TLE details & history
Last TLE update: 12 hours ago

TLE from 12 hours ago
0 COSMOS 2251 DEB
1 34121U 93036KS  26150.47887370  .00002107  00000-0  13086-2 0  9990
2 34121  73.9898 167.8441 0238939 336.5960 191.1022 13.92543077874730
Epoch: 2026-05-30T11:29Z
TLE epoch observation values (Epoch: 2026-05-30T11:29:34.687Z)
Latitude
12.27405°
Longitude
-76.10558°
Altitude
1,092.819 km
Speed
7.221 km/s
True Right ascension
22h 57m 07s
True Declination
12° 12' 22"
Sunlit
Object was in daylight at epoch
Visualization orbit readout
Latitude
Unknown
Longitude
Unknown
Altitude
Unknown
Speed
Unknown
Apparent Right ascension
Unknown
Apparent Declination
Unknown
Sunlit
N/A
Visualization observer readout
Local Sidereal Time
08:37:37
Azimuth
Unknown
Elevation
Unknown
Doppler factor
Unknown
Orbital elements
Apogee altitude
1,091.726 km
Perigee altitude
743.088 km
Semi-major axis
7,295.544 km
Eccentricity
0.02389
Inclination
73.9898°
RAAN
167.8441°
Arg. of periapsis
336.596°
True anomaly
190.59°
Mean anomaly
191.1022°
Eccentric anomaly
190.84462°
Mean motion
3.48303 °/min
Orbital period
103.36 mins
BSTAR
0.0013086

Documentation

Showing up to 5 results
|